Total_Precipitation_Accumulation
1.91 1.86 3.07 3.23 3.01 2.66 2.50 2.56 2.71 2.89 3.03 3.15 2.90 2.70 2.54 2.57 2.76 2.85 2.92 2.79 2.68 2.63 2.67 2.75 2.85 2.83 2.65 2.39 2.47 2.80 3.17 3.27 3.07 3.05 3.36 3.41 3.63 3.73 3.86 3.86 3.79 3.72 3.79
1.46 1.68 2.84 2.98 2.74 2.50 2.47 2.63 2.63 2.67 2.80 2.92 2.95 2.75 2.62 2.65 2.80 2.88 2.92 2.82 2.66 2.57 2.61 2.75 2.88 2.76 2.57 2.46 2.59 2.92 3.13 3.15 3.09 3.29 3.84 3.98 4.04 4.09 4.01 3.80 3.76 3.83 3.87
1.20 1.41 2.13 2.70 2.61 2.42 2.43 2.48 2.54 2.64 2.68 2.67 2.77 2.78 2.71 2.92 3.03 3.00 2.99 2.88 2.79 2.67 2.67 2.67 2.68 2.70 2.50 2.59 2.80 2.87 2.83 2.89 3.13 3.31 3.85 4.35 4.06 4.15 4.17 4.05 3.83 3.92 3.99
1.00 1.23 1.83 2.69 2.65 2.51 2.56 2.64 2.71 2.74 2.53 2.42 2.44 2.50 2.60 2.83 3.00 3.06 3.11 2.97 2.98 2.90 2.72 2.51 2.44 2.62 2.56 2.61 2.81 2.77 2.74 2.93 3.19 3.20 3.52 4.11 4.04 4.23 4.56 4.58 4.26 4.11 4.19
1.04 1.20 1.93 2.77 2.58 2.53 2.59 2.75 2.68 2.56 2.52 2.48 2.51 2.60 2.64 2.82 2.99 3.07 3.04 3.01 3.04 2.99 2.84 2.68 2.51 2.63 2.62 2.63 2.67 2.75 2.90 3.06 3.15 2.80 3.12 3.74 4.58 4.89 4.38 4.56 4.49 4.22 4.01
0.96 1.12 1.78 2.64 2.53 2.48 2.52 2.72 2.54 2.42 2.59 2.65 2.67 2.79 2.83 3.05 3.30 3.25 3.12 3.22 3.13 3.03 2.83 2.80 2.68 2.69 2.65 2.61 2.61 2.75 2.96 3.08 2.70 2.69 3.14 3.65 4.42 4.87 4.19 4.15 4.15 4.07 3.97
0.97 1.09 1.50 2.32 2.41 2.42 2.47 2.58 2.48 2.51 2.69 2.60 2.63 2.77 2.83 3.03 3.32 3.34 3.19 3.24 3.27 3.31 3.15 2.98 2.88 2.75 2.66 2.68 2.65 2.81 2.99 2.81 2.43 2.75 3.06 3.65 4.10 4.38 3.99 3.83 3.93 4.03 4.30
1.09 1.04 1.24 1.93 2.14 2.21 2.42 2.45 2.43 2.45 2.56 2.48 2.54 2.63 2.72 2.85 3.06 3.10 3.05 3.16 3.24 3.25 3.21 3.01 2.87 2.73 2.73 2.71 2.93 3.18 3.11 2.52 2.07 2.44 2.91 3.66 4.48 4.51 4.02 3.73 3.82 4.03 4.31
1.45 1.30 1.32 1.47 1.57 1.93 2.35 2.40 2.46 2.49 2.43 2.34 2.38 2.41 2.43 2.48 2.67 2.76 2.79 3.03 3.22 3.35 3.24 2.99 2.88 2.95 3.11 2.98 2.92 2.98 2.79 2.31 2.02 2.25 2.30 3.55 4.64 4.51 3.97 3.68 3.66 3.81 3.99
1.46 1.45 1.40 1.41 1.41 1.72 1.92 2.23 2.49 2.55 2.42 2.24 2.18 2.14 2.23 2.24 2.34 2.49 2.49 2.88 3.32 3.60 3.44 3.16 3.00 2.90 2.93 2.85 2.71 2.63 2.43 1.98 1.73 1.86 2.40 3.48 4.60 4.53 4.12 3.73 3.56 3.43 3.57
1.40 1.45 1.39 1.39 1.51 1.80 1.92 1.95 2.29 2.46 2.42 2.03 1.79 1.80 1.81 1.80 1.94 2.14 2.21 2.77 3.04 3.34 3.35 3.17 2.86 2.70 2.56 2.49 2.44 2.30 1.88 1.65 1.64 1.89 2.57 3.93 4.74 4.86 4.42 3.98 3.74 3.44 3.19
1.20 1.24 1.27 1.29 1.35 1.55 1.68 2.03 2.21 1.98 2.03 1.72 1.68 1.62 1.58 1.70 1.83 1.69 1.96 2.50 2.75 2.99 3.08 2.95 2.78 2.43 2.07 1.87 1.83 1.79 1.61 1.49 1.57 1.89 2.92 4.29 5.02 5.31 4.79 4.14 3.52 3.17 3.05
1.04 0.96 0.94 1.03 1.08 1.23 1.45 1.60 1.82 2.03 2.01 1.97 1.90 1.81 1.79 1.64 1.55 1.60 1.77 1.95 2.18 2.35 2.38 2.45 2.36 2.02 1.79 1.72 1.68 1.53 1.47 1.33 1.56 1.89 2.99 4.13 4.83 5.24 4.99 4.40 3.68 3.35 3.28
1.10 1.07 0.90 0.87 0.94 1.08 1.18 1.30 1.50 1.67 1.74 1.77 1.75 1.66 1.81 1.73 1.57 1.61 1.81 1.91 1.94 2.10 2.36 2.45 2.38 2.06 1.81 1.63 1.57 1.43 1.35 1.32 1.45 1.72 2.67 3.49 4.19 4.68 4.78 4.51 3.98 3.53 3.32
1.17 1.17 1.02 0.85 0.88 1.04 1.17 1.20 1.19 1.41 1.51 1.55 1.74 1.71 1.72 1.69 1.52 1.42 1.51 1.78 1.89 1.96 2.19 2.31 2.18 2.09 2.03 1.90 1.75 1.60 1.50 1.43 1.46 1.50 2.02 2.70 3.35 4.05 4.55 4.57 4.18 3.64 3.36
1.05 1.08 1.02 0.91 0.95 1.04 1.05 1.04 1.06 1.09 1.29 1.29 1.31 1.28 1.49 1.70 1.59 1.49 1.39 1.57 1.87 2.00 2.07 2.08 1.99 2.02 2.02 1.95 1.81 1.73 1.69 1.51 1.60 1.61 1.77 1.93 2.29 2.86 3.69 4.31 4.20 3.73 3.43
0.91 0.97 1.00 0.99 1.00 1.04 1.08 1.13 1.10 1.17 1.23 1.29 1.27 1.21 1.35 1.52 1.57 1.46 1.35 1.48 1.74 1.96 2.04 2.05 1.95 2.02 1.93 1.79 1.82 1.81 1.77 1.66 1.71 1.76 1.76 1.76 1.72 2.04 2.77 3.57 3.86 3.80 3.68
0.74 0.82 0.92 0.90 0.97 1.03 1.07 1.17 1.21 1.31 1.35 1.39 1.43 1.34 1.32 1.42 1.52 1.61 1.54 1.48 1.69 1.93 2.19 2.36 2.21 2.14 2.08 1.96 1.98 1.93 1.79 1.81 1.77 1.77 1.75 1.77 1.82 1.70 1.94 2.36 2.88 3.42 3.69
0.63 0.65 0.76 0.86 0.92 0.97 1.05 1.15 1.17 1.25 1.50 1.60 1.52 1.50 1.58 1.61 1.55 1.72 1.82 1.73 1.78 2.01 2.13 2.20 2.23 2.13 2.11 2.05 1.88 1.83 1.74 1.80 1.83 1.67 1.66 1.70 1.81 1.82 1.75 1.60 1.85 2.41 3.05
0.60 0.61 0.66 0.79 0.87 0.89 0.99 1.14 1.26 1.26 1.37 1.60 1.65 1.68 1.81 1.92 1.90 1.96 2.04 2.02 2.00 2.11 2.13 2.29 2.53 2.37 2.15 2.09 1.88 1.75 1.71 1.73 1.75 1.73 1.76 1.78 1.81 1.82 1.80 1.65 1.62 1.62 2.10
0.56 0.56 0.65 0.76 0.82 0.84 0.96 1.07 1.18 1.29 1.45 1.69 1.75 1.78 1.92 2.03 2.08 2.17 2.22 2.27 2.22 2.14 2.19 2.39 2.82 2.76 2.41 2.15 2.13 2.01 1.86 1.79 1.82 1.75 1.85 1.91 1.83 1.82 1.89 1.82 1.71 1.59 1.54
0.50 0.52 0.59 0.73 0.85 0.90 0.99 1.12 1.29 1.55 1.61 1.75 1.99 1.98 1.97 2.01 2.06 2.16 2.36 2.45 2.41 2.42 2.48 2.53 2.82 3.04 2.79 2.55 2.56 2.76 2.53 2.31 1.94 1.61 1.63 1.69 1.75 1.81 1.82 1.85 1.78 1.67 1.64
0.46 0.57 0.66 0.79 0.99 1.19 1.32 1.55 1.88 2.16 2.20 2.10 2.11 2.20 2.21 2.21 2.24 2.20 2.29 2.47 2.48 2.47 2.55 2.73 3.02 3.41 3.44 3.11 2.84 3.05 2.83 2.52 2.40 1.86 1.51 1.52 1.64 1.76 1.81 1.88 1.85 1.75 1.71
0.46 0.63 0.86 1.11 1.42 1.65 1.80 1.98 2.24 2.39 2.44 2.31 2.29 2.30 2.35 2.28 2.23 2.24 2.27 2.42 2.56 2.70 2.85 2.88 2.83 3.31 3.71 3.52 3.24 2.83 2.54 2.39 2.52 2.39 1.89 1.55 1.56 1.60 1.68 1.70 1.81 1.92 1.87
0.70 0.94 1.32 1.63 1.88 2.04 2.09 2.16 2.40 2.54 2.70 2.70 2.55 2.40 2.34 2.34 2.33 2.28 2.25 2.28 2.29 2.38 2.54 2.68 2.74 3.02 3.29 3.53 3.50 3.23 2.90 2.69 2.22 2.21 2.29 2.04 1.74 1.47 1.44 1.58 1.78 1.87 1.89
1.16 1.38 1.64 1.80 1.99 2.03 2.02 2.04 2.19 2.39 2.58 2.57 2.55 2.50 2.42 2.33 2.26 2.16 2.11 2.16 2.16 2.12 2.24 2.39 2.56 2.84 3.04 3.21 3.30 3.20 3.11 3.03 2.69 2.37 2.15 2.10 1.95 1.68 1.49 1.49 1.57 1.66 1.74